Regional Weather Roundup
Issued by NWS Charleston, SC

Current Version | Previous Version | Graphics & Text | Print | Product List | Glossary On
Versions: 1 2 3 4 5 6 7 8 9 10 11 12 13 14 15 16 17 18 19 20 21 22 23 24 25 26 27 28 29 30 31 32 33 34 35 36 37 38 39 40 41 42 43 44 45 46 47 48 49 50
000
ASUS42 KCHS 191226
RWRCHS

REGIONAL WEATHER ROUNDUP
NATIONAL WEATHER SERVICE CHARLESTON SC
800 AM EDT SUN APR 19 2015

NOTE: "FAIR" INDICATES FEW OR NO CLOUDS BELOW 12,000 FEET WITH NO
SIGNIFICANT WEATHER AND/OR OBSTRUCTIONS TO VISIBILITY.

NOT ALL STATIONS ARE QUALITY CONTROLLED BY THE NATIONAL
WEATHER SERVICE. USE DATA WITH CAUTION...ESPECIALLY
DEWPOINT OBSERVATIONS.

SCZ027-030-031-034>040-042>050-191300-
...SOUTHEAST SOUTH CAROLINA...

CITY           SKY/WX    TMP DP  RH WIND       PRES   REMARKS
N CHARLESTON   LGT RAIN  68  66  93 E3        29.96R VSB 3/4
6HR MIN TEMP:  66; 6HR MAX TEMP:  68; 6HR PCP: TRACE;

WATERFRONT PRK   N/A     70 N/A N/A E7          N/A
MOUNT PLEASANT DRIZZLE   68  68 100 E6        29.97R
PINOPOLIS      NOT AVBL
MONCKS CORNER  CLOUDY    68  64  88 SE3       29.96S FOG
SUMMERVILLE    DRIZZLE   66  66 100 CALM      29.97R
BEAUFORT MCAS  LGT RAIN  71  69  93 S3        29.95S
6HR MIN TEMP:  69; 6HR MAX TEMP:  70; 6HR PCP: TRACE;

BEAUFORT ARPT  LGT RAIN  70  70 100 SE3       29.95S
HILTON HEAD IS CLOUDY    70  70 100 S5        29.96R FOG
WALTERBORO     DRIZZLE   64  64 100 SE3       29.96S
ALLENDALE      CLOUDY    70  70 100 SE5       29.93S FOG

...SOUTHERN MIDLANDS AND PEE DEE...

CITY           SKY/WX    TMP DP  RH WIND       PRES   REMARKS
GEORGETOWN     NOT AVBL
KINGSTREE      NOT AVBL
ORANGEBURG     LGT RAIN  67  65  93 SE5       29.95S FOG
6HR MIN TEMP:  67; 6HR MAX TEMP:  67; 6HR PCP:  0.01;

BARNWELL       HVY RAIN  70  70 100 SE6       29.95R VSB 3/4
AIKEN          LGT RAIN  50  50 100 S6        29.96S
MANNING        RAIN      64  57  77 CALM      29.96S
COLUMBIA       RAIN      67  65  93 E9        29.93R VSB 1/4
6HR MIN TEMP:  67; 6HR MAX TEMP:  69; 6HR PCP:  0.01;

SUMTER         CLOUDY    66  65  96 E6        29.94R
6HR MIN TEMP:  65; 6HR MAX TEMP:  67; 6HR PCP: TRACE;

FLORENCE       CLOUDY    65  63  93 E7        29.97S
6HR MIN TEMP:  65; 6HR MAX TEMP:  67;

MYRTLE BEACH   PTSUNNY   68  63  83 E10       30.00R
N MYRTLE BEACH CLOUDY    68  65  90 E10G16    29.98R
6HR MIN TEMP:  64; 6HR MAX TEMP:  68;


$$

GAZ063-065-086>088-099>101-113>116-118-119-134>141-150-191300-
...SOUTHEAST GEORGIA...

CITY           SKY/WX    TMP DP  RH WIND       PRES   REMARKS
SAVANNAH ARPT  RAIN      70  68  94 S5        29.95S FOG
6HR MIN TEMP:  69; 6HR MAX TEMP:  70; 6HR PCP:  0.02;

HUNTER AAF     LGT RAIN  70  70 100 VRB2      29.93R
6HR MIN TEMP:  69; 6HR MAX TEMP:  70; 6HR PCP:  0.03;

FORT STEWART   RAIN      70  68  94 S2        29.93R FOG
6HR MIN TEMP:  69; 6HR MAX TEMP:  69; 6HR PCP:  0.18;

STATESBORO     RAIN      69  69 100 S6        29.93S
SYLVANIA       CLOUDY    69  69 100 S3        29.94S FOG
CLAXTON        LGT RAIN  70  70 100 SE5       29.92F

...CSRA...CENTRAL AND FAR SOUTHEAST GEORGIA...

CITY           SKY/WX    TMP DP  RH WIND       PRES   REMARKS
THOMSON        CLOUDY    70  70 100 CALM      29.93F
AUGUSTA-BUSH   LGT RAIN  68  67  96 SE5       29.91S FOG
6HR MIN TEMP:  68; 6HR MAX TEMP:  68; 6HR PCP:  0.11;

AUGUSTA-DANIEL LGT RAIN  68  67  96 SE5       29.92S VSB 1/4
SWAINSBORO     NOT AVBL
VIDALIA        LGT RAIN  70  70 100 SE5       29.89F
EASTMAN        FAIR      71  71 100 SE6       29.86F FOG
HAZLEHURST     CLOUDY    72  72 100 SE7       29.85F
ALMA           CLOUDY    69  68  96 E6        29.88F
6HR MIN TEMP:  69; 6HR MAX TEMP:  71; 6HR PCP:  0.12;

WAYCROSS       CLOUDY    73  73  99 SE8         N/A
JESUP          PTSUNNY   72  70  94 SE3       29.92F
BAXLEY         FAIR      72  70  94 E6        29.87F
BRUNSWICK      CLOUDY    72  70  94 CALM      29.94F
SAINT SIMONS   CLOUDY    72  71  97 S3        29.94S
6HR MIN TEMP:  71; 6HR MAX TEMP:  72; 6HR PCP: TRACE;


$$

SCZ027-028-034-036>038-045-046-048>050-GAZ119-141-191300-
...LAKE AND SUPPLEMENTAL COASTAL OBSERVATIONS...

STATION/POSITION TIME  TEMP    WIND        PRES    WAVE   SWELL
                       AIR SEA DIR/SP/G            HT/PER HT/PER/DIR
                 (UTC) (F)     (DEG/KT/KT) (MB)    (FT/S) (FT/S/D)
UPR LAKE MARION  NOT AVBL
WINYAH BAY       NOT AVBL
LAKE MURRAY      1100   66      90/  5/  7 1012.9R
ACE BASIN NERRS  NOT AVBL
FORT PULASKI     1200   70 71   CALM  /  2 1014.8R
SAPELO ISLAND    1100   71     190/  3     1014.0R

$$

ANZ835-935-AMZ111-154-330-350-352-354-370-450-454-472-191300-
...C-MAN AND BUOY OBSERVATIONS...

STATION/POSITION TIME  TEMP    WIND        PRES    WAVE   SWELL
                       AIR SEA DIR/SP/G            HT/PER HT/PER/DIR
                 (UTC) (F)     (DEG/KT/KT) (MB)    (FT/S) (FT/S/D)
BUOY 41004       1150   74 75   70/  8/ 10 1013.9R   3/ 8   3/ 8
BUOY 41008       1150   69 68  210/  4/  4 1014.3R   2/ 9   2/100/ 9
FOLLY BEACH CMAN 1200   67      80/  8/  9 1014.4R
CAPERS NEARSHORE NOT AVBL
FRIPP NEARSHORE  1100   68     150/  4/  6 1013.7R


STATION/POSITION TIME  TEMP    WIND        PRES    WAVE   SWELL
                       AIR SEA DIR/SP/G            HT/PER HT/PER/DIR
                 (UTC) (F)     (DEG/KT/KT) (MB)    (FT/S) (FT/S/D)
5E ST. MARYS GA  1121      71                N/A     2/ 8   2/100/13
FRYING PAN BUOY  1150   74 73  130/ 10/ 12 1015.2R   3/ 9   3/100/ 9
BUOY 41025       1150   72 76   70/ 10/ 12 1016.7R   4/12   3/ 70/12
CAPE LOOKOUT NC  1200   67      60/  5/  6 1016.1R
BUOY 41002       1150   72 75   80/ 10/ 12 1015.9R   4/12   3/ 40/12
BUOY 41010       1120   76 78  190/  6/  8 1015.1R
ST AUGUSTINE FL  1200   71 69  170/  5/  5 1014.9F


$$



USA.gov is the U.S. government's official web portal to all federal, state and local government web resources and services.